Flag for India Weather past 2 weeks in Dindigul, Tamil Nadu, India

Now
99 °F

Scattered clouds.


Feels Like: 101 °F
Forecast: 77 / 97 °F
Wind: 9 mph from West

Location: Tiruchchirapalli

Current Time: Aug 5, 2015 at 5:06:44 PM

Latest Report: Aug 5, 2015 at 4:40 PM


Visibility: N/A

Pressure: 29.65 "Hg

Humidity: 33%

Dew point: 64 °F

Location of DindigulLocation

Historic Weather in Dindigul — Graph

°F

Dindigul temperature yesterday

Maximum temperature yesterday: 99 °F (at 2:40 PM)
Minimum temperature yesterday: 79 °F (at 12:10 AM)
Average temperature yesterday: 86 °F

Past Weeks' High & Low Weather Summary

 TemperatureHumidityPressure
High104 °F (Jul 29, 3:10 PM)94% (Jul 23, 9:40 PM)29.89 "Hg (Jul 23, 9:40 PM)
Low77 °F (Jul 23, 9:40 PM)28% (Jul 29, 3:10 PM)29.59 "Hg (Jul 21, 3:40 PM)
Average89 °F57%29.76 "Hg
* Reported Jul 21 3:40 PM — Aug 5 3:40 PM, Dindigul, Weather by CustomWeather, © 2015

Note: Actual official high and low records may vary slightly from our data, if they occured in-between our weather recording intervals... More about our weather records

Advertising

Dindigul weather history for previous 24 hours

 ConditionsComfort  
Time TempWeatherWind HumidityBarometerVisibility
3:40 PM
Wed, Aug 5
100 °FScattered clouds.9 mph35%29.68 "HgN/A
3:10 PM102 °FScattered clouds.12 mph31%29.68 "HgN/A
2:40 PM100 °FScattered clouds.9 mph35%29.68 "HgN/A
2:10 PM99 °FPassing clouds.12 mph37%29.71 "HgN/A
1:40 PM99 °FPassing clouds.9 mph37%29.71 "HgN/A
1:10 PM97 °FPassing clouds.12 mph39%29.74 "HgN/A
12:40 PM97 °FPassing clouds.9 mph42%29.74 "Hg5 mi
12:10 PM95 °FPassing clouds.12 mph44%29.77 "Hg5 mi
11:40 AM93 °FPassing clouds.12 mph47%29.77 "Hg5 mi
11:10 AM93 °FPassing clouds.10 mph47%29.80 "Hg5 mi
10:40 AM91 °FPassing clouds.13 mph49%29.80 "Hg5 mi
10:10 AM90 °FPassing clouds.13 mph52%29.80 "Hg5 mi
9:40 AM88 °FScattered clouds.13 mph59%29.80 "Hg5 mi
9:10 AM86 °FScattered clouds.13 mph62%29.80 "Hg5 mi
8:40 AM84 °FScattered clouds.12 mph66%29.80 "Hg4 mi
8:10 AM84 °FScattered clouds.9 mph66%29.80 "Hg4 mi
7:40 AM82 °FScattered clouds.9 mph70%29.77 "Hg4 mi
7:10 AM82 °FScattered clouds.8 mph70%29.77 "Hg4 mi
6:40 AM81 °FScattered clouds.9 mph74%29.77 "Hg4 mi
6:10 AM81 °FPassing clouds.7 mph74%29.74 "Hg4 mi
5:40 AM81 °FPassing clouds.12 mph74%29.74 "Hg4 mi
5:10 AM81 °FPassing clouds.10 mph74%29.74 "Hg4 mi
4:40 AM81 °FPassing clouds.12 mph74%29.74 "Hg4 mi
4:10 AM81 °FPassing clouds.10 mph74%29.74 "Hg4 mi
3:40 AM81 °FPassing clouds.9 mph74%29.74 "Hg4 mi
3:10 AM81 °FPassing clouds.10 mph74%29.74 "Hg4 mi
2:40 AM81 °FPassing clouds.12 mph74%29.74 "Hg4 mi
1:40 AM81 °FPassing clouds.10 mph79%29.77 "Hg4 mi
1:10 AM81 °FPassing clouds.9 mph79%29.77 "Hg4 mi
12:40 AM81 °FPassing clouds.7 mph79%29.77 "Hg4 mi
11:40 PM
Tue, Aug 4
81 °FPassing clouds.5 mph79%29.77 "Hg4 mi
10:40 PM82 °FPassing clouds.6 mph70%29.80 "Hg4 mi
10:10 PM82 °FPassing clouds.3 mph70%29.80 "Hg4 mi
9:40 PM82 °FPassing clouds.3 mph70%29.80 "Hg4 mi
9:10 PM82 °FPassing clouds.3 mph70%29.77 "Hg4 mi
8:40 PM82 °FPartly cloudy.5 mph70%29.77 "Hg4 mi
8:10 PM84 °FPartly cloudy.7 mph66%29.74 "Hg4 mi
7:40 PM84 °FPassing clouds.9 mph70%29.74 "Hg4 mi
7:10 PM84 °FPassing clouds.8 mph70%29.74 "Hg4 mi
6:40 PM86 °FScattered clouds.12 mph62%29.74 "Hg4 mi
6:10 PM90 °FScattered clouds.12 mph59%29.71 "Hg4 mi
5:40 PM93 °FScattered clouds.13 mph56%29.68 "Hg4 mi
5:10 PM97 °FScattered clouds.8 mph44%29.68 "HgN/A
Weather by CustomWeather, © 2015

See weather overviewHow to use our weather pages